Needles, CA

3:25 AM PDT on July 26, 2016 (GMT -0700)
Needles

Weather History for KEED - July, 2012

Change the Weather History Date:

Sunday, July 22, 2012

  Actual Average Record
Temperature  
Mean Temperature 99 °F 97 °F  
Max Temperature 109 °F 109 °F 118 °F (2016)
Min Temperature 90 °F 85 °F 68 °F (1924)
Degree Days  
Heating Degree Days 0    
Cooling Degree Days 34    
Growing Degree Days 49 (Base 50)    
Moisture  
Dew Point 59 °F    
Average Humidity 27    
Maximum Humidity 40    
Minimum Humidity 17    
Precipitation  
Precipitation 0.00 in 0.00 in 1.50 in (1968)
Month to date precipitation 0.10  
Year to date precipitation 2.48  
Sea Level Pressure  
Sea Level Pressure 29.74 in    
Wind  
Wind Speed 7 mph (SSE)    
Max Wind Speed 17 mph    
Max Gust Speed 23 mph    
Visibility 10 miles    
Events      
T = Trace of Precipitation, MM = Missing Value Source: NWS Daily Summary

Daily Weather History Graph

Daily Weather History Graph

Search for Another Location

Airport or City:

Trip Planner

Search our weather history database for the weather conditions in past years. The results will help you decide how hot, cold, wet, or windy it might be!

Date:

Astronomy

Jul. 22, 2012 Rise Set
Actual Time 5:41 AM PDT 7:48 PM PDT
Civil Twilight 5:13 AM PDT 8:16 PM PDT
Nautical Twilight 4:38 AM PDT 8:50 PM PDT
Astronomical Twilight 4:01 AM PDT 9:27 PM PDT
Moon 9:19 AM PDT (7/22) 9:46 PM PDT (7/22)
Length of Visible Light 15h 03m
Length of Day
14h 06m
Waxing Crescent, 14% of the Moon is Illuminated
Jul 22
Waxing Crescent
Jul 26
First Quarter
Aug 1
Full
Aug 9
Last Quarter
Aug 17
New

Hourly Weather History & Observations

Time (PDT) Temp. Heat Index Dew Point Humidity Pressure Visibility Wind Dir Wind Speed Gust Speed Precip Events Conditions
12:56 AM 93.9 °F 94.0 °F 61.0 °F 33% 29.76 in 10.0 mi South 9.2 mph - N/A   Partly Cloudy
1:56 AM 95.0 °F 94.8 °F 60.1 °F 31% 29.75 in 10.0 mi Calm Calm - N/A   Clear
2:56 AM 91.9 °F 92.9 °F 63.0 °F 38% 29.75 in 10.0 mi WNW 3.5 mph - N/A   Clear
3:56 AM 91.0 °F 91.9 °F 63.0 °F 39% 29.75 in 10.0 mi WSW 4.6 mph - N/A   Clear
4:56 AM 90.0 °F 90.6 °F 63.0 °F 40% 29.76 in 10.0 mi Calm Calm - N/A   Clear
5:56 AM 91.0 °F 91.5 °F 62.1 °F 38% 29.78 in 10.0 mi WNW 3.5 mph - N/A   Clear
7:56 AM 93.9 °F 94.8 °F 62.1 °F 35% 29.81 in 10.0 mi ESE 5.8 mph - N/A   Clear
8:56 AM 96.1 °F 96.9 °F 62.1 °F 32% 29.81 in 10.0 mi East 4.6 mph - N/A   Clear
9:56 AM 97.0 °F 97.4 °F 61.0 °F 30% 29.80 in 10.0 mi East 5.8 mph - N/A   Clear
10:56 AM 100.9 °F 100.5 °F 57.9 °F 24% 29.80 in 10.0 mi SE 10.4 mph 16.1 mph N/A   Clear
11:56 AM 104.0 °F 103.4 °F 57.0 °F 21% 29.78 in 10.0 mi ESE 10.4 mph 19.6 mph N/A   Clear
12:56 PM 105.1 °F 104.4 °F 55.9 °F 20% 29.76 in 10.0 mi East 6.9 mph 18.4 mph N/A   Clear
1:56 PM 106.0 °F 105.8 °F 57.0 °F 20% 29.73 in 10.0 mi SSE 11.5 mph 16.1 mph N/A   Clear
2:56 PM 107.1 °F 106.7 °F 55.9 °F 19% 29.71 in 10.0 mi SSE 9.2 mph - N/A   Clear
3:56 PM 108.0 °F 106.6 °F 54.0 °F 17% 29.69 in 10.0 mi ENE 5.8 mph - N/A   Clear
4:56 PM 107.1 °F 106.0 °F 55.0 °F 18% 29.65 in 10.0 mi SW 5.8 mph - N/A   Clear
5:56 PM 108.0 °F 107.3 °F 55.9 °F 18% 29.65 in 10.0 mi South 13.8 mph 17.3 mph N/A   Clear
6:56 PM 106.0 °F 106.4 °F 57.9 °F 21% 29.67 in 10.0 mi SSW 10.4 mph - N/A   Clear
7:56 PM 104.0 °F 104.0 °F 57.9 °F 22% 29.67 in 10.0 mi South 9.2 mph - N/A   Clear
8:56 PM 102.9 °F 102.4 °F 57.0 °F 22% 29.70 in 10.0 mi SSW 8.1 mph - N/A   Clear
9:56 PM 99.0 °F 100.5 °F 62.1 °F 30% 29.74 in 10.0 mi SSE 15.0 mph 23.0 mph N/A   Mostly Cloudy
10:56 PM 97.0 °F 98.3 °F 63.0 °F 32% 29.75 in 10.0 mi SSE 17.3 mph 23.0 mph N/A   Clear
11:56 PM 97.0 °F 96.9 °F 60.1 °F 29% 29.75 in 10.0 mi SSW 9.2 mph - N/A   Clear